TimeMDT,TemperatureF,Dew PointF,Humidity,Sea Level PressureIn,VisibilityMPH,Wind Direction,Wind SpeedMPH,Gust SpeedMPH,PrecipitationIn,Events,Conditions,WindDirDegrees,DateUTC
1:15 AM,54.5,29.1,38,30.30,10.0,North,12.7,-,N/A,,Clear,360,2013-08-12 07:15:00
1:35 AM,55.2,28.9,37,30.30,10.0,North,11.5,-,N/A,,Clear,10,2013-08-12 07:35:00
1:55 AM,55.8,28.8,36,30.30,10.0,North,11.5,-,N/A,,Clear,350,2013-08-12 07:55:00
2:15 AM,54.7,30.0,39,30.32,10.0,NE,6.9,-,N/A,,Clear,40,2013-08-12 08:15:00
2:35 AM,55.8,30.0,37,30.32,10.0,Calm,Calm,-,N/A,,Clear,0,2013-08-12 08:35:00
2:55 AM,55.4,30.0,38,30.31,10.0,North,8.1,-,N/A,,Clear,350,2013-08-12 08:55:00
3:15 AM,54.3,30.2,40,30.31,10.0,North,9.2,-,N/A,,Clear,360,2013-08-12 09:15:00
3:35 AM,52.5,30.7,43,30.30,10.0,North,8.1,-,N/A,,Clear,360,2013-08-12 09:35:00
3:55 AM,52.0,31.1,45,30.30,10.0,North,9.2,-,N/A,,Clear,360,2013-08-12 09:55:00
4:15 AM,52.0,31.1,45,30.30,10.0,North,8.1,-,N/A,,Clear,360,2013-08-12 10:15:00
4:35 AM,51.6,31.3,46,30.30,10.0,North,8.1,-,N/A,,Clear,360,2013-08-12 10:35:00
4:55 AM,50.9,31.8,48,30.30,10.0,North,11.5,-,N/A,,Clear,360,2013-08-12 10:55:00
5:15 AM,49.1,32.2,52,30.30,10.0,North,10.4,-,N/A,,Clear,350,2013-08-12 11:15:00
5:35 AM,49.5,32.0,51,30.30,10.0,North,10.4,-,N/A,Thunderstorm,Clear,350,2013-08-12 11:35:00
5:55 AM,49.5,32.0,51,30.30,10.0,North,11.5,-,N/A,,Clear,350,2013-08-12 11:55:00
6:15 AM,49.3,32.0,51,30.30,10.0,North,11.5,-,N/A,,Clear,350,2013-08-12 12:15:00
6:35 AM,48.7,32.2,53,30.31,10.0,North,11.5,-,N/A,Thunderstorm,Clear,350,2013-08-12 12:35:00
6:55 AM,48.4,32.2,54,30.31,10.0,North,11.5,-,N/A,Thunderstorm,Clear,350,2013-08-12 12:55:00
7:15 AM,49.1,32.0,52,30.32,10.0,North,11.5,-,N/A,,Clear,350,2013-08-12 13:15:00
7:35 AM,51.3,32.2,48,30.32,10.0,North,11.5,-,N/A,,Clear,350,2013-08-12 13:35:00
7:55 AM,52.9,32.5,46,30.32,10.0,North,11.5,-,N/A,,Clear,360,2013-08-12 13:55:00
8:15 AM,55.2,32.9,43,30.33,10.0,North,10.4,-,N/A,,Clear,360,2013-08-12 14:15:00
8:35 AM,57.4,32.9,40,30.34,10.0,North,5.8,-,N/A,,Clear,10,2013-08-12 14:35:00
8:55 AM,59.9,32.4,35,30.34,10.0,North,3.5,-,N/A,,Clear,10,2013-08-12 14:55:00
9:15 AM,62.6,33.1,33,30.34,10.0,NNE,4.6,-,N/A,,Clear,30,2013-08-12 15:15:00
9:35 AM,64.4,34.0,32,30.34,10.0,Calm,Calm,-,N/A,,Clear,0,2013-08-12 15:35:00
9:55 AM,68.0,32.7,27,30.34,10.0,Calm,Calm,-,N/A,,Clear,0,2013-08-12 15:55:00
10:15 AM,70.3,32.4,25,30.34,10.0,Calm,Calm,-,N/A,,Clear,0,2013-08-12 16:15:00
10:35 AM,70.7,33.3,25,30.35,10.0,South,6.9,-,N/A,,Clear,190,2013-08-12 16:35:00
10:55 AM,71.2,33.3,25,30.35,10.0,Calm,Calm,-,N/A,,Clear,0,2013-08-12 16:55:00
11:15 AM,72.7,32.5,23,30.35,10.0,SSE,4.6,-,N/A,,Clear,160,2013-08-12 17:15:00
11:35 AM,73.9,32.4,22,30.34,10.0,South,4.6,-,N/A,,Clear,170,2013-08-12 17:35:00
11:55 AM,74.7,32.5,21,30.34,10.0,SSW,6.9,-,N/A,,Clear,200,2013-08-12 17:55:00
12:15 PM,75.4,32.0,20,30.32,10.0,Calm,Calm,-,N/A,,Clear,0,2013-08-12 18:15:00
12:35 PM,76.5,31.5,19,30.32,10.0,SSW,5.8,-,N/A,,Clear,200,2013-08-12 18:35:00
12:55 PM,77.2,30.9,18,30.30,10.0,South,5.8,-,N/A,,Clear,180,2013-08-12 18:55:00
1:15 PM,79.0,29.3,16,30.30,10.0,Calm,Calm,-,N/A,,Clear,0,2013-08-12 19:15:00
1:35 PM,80.1,27.5,15,30.30,10.0,South,4.6,-,N/A,,Clear,190,2013-08-12 19:35:00
1:55 PM,77.2,28.4,17,30.29,10.0,West,12.7,-,N/A,,Mostly Cloudy,270,2013-08-12 19:55:00
2:15 PM,75.9,30.0,19,30.29,10.0,West,12.7,17.3,N/A,,Scattered Clouds,260,2013-08-12 20:15:00
2:35 PM,74.5,27.3,17,30.29,10.0,West,11.5,-,N/A,,Clear,280,2013-08-12 20:35:00
2:55 PM,74.3,24.3,15,30.29,10.0,West,15.0,20.7,N/A,Thunderstorm,Clear,270,2013-08-12 20:55:00
3:15 PM,71.8,28.4,20,30.30,10.0,West,15.0,24.2,N/A,Rain,Light Rain,280,2013-08-12 21:15:00
3:35 PM,66.0,37.8,35,30.32,10.0,West,19.6,32.2,N/A,Rain-Thunderstorm,Light Thunderstorms and Rain,270,2013-08-12 21:35:00
3:55 PM,60.6,41.7,50,30.35,10.0,NW,25.3,32.2,0.02,Rain,Rain,320,2013-08-12 21:55:00
4:15 PM,60.4,40.1,47,30.34,10.0,NW,24.2,33.4,0.01,Rain,Light Rain,320,2013-08-12 22:15:00
4:35 PM,59.2,44.2,58,30.34,10.0,WNW,17.3,26.5,0.01,,Scattered Clouds,300,2013-08-12 22:35:00
4:55 PM,60.3,43.5,54,30.34,10.0,NNW,18.4,24.2,0.01,,Clear,340,2013-08-12 22:55:00
5:15 PM,62.8,41.9,46,30.34,10.0,North,8.1,-,N/A,,Clear,360,2013-08-12 23:15:00
5:35 PM,64.2,40.8,42,30.34,10.0,WNW,4.6,-,N/A,,Scattered Clouds,300,2013-08-12 23:35:00
5:55 PM,65.8,40.3,39,30.34,10.0,NNW,4.6,-,N/A,,Scattered Clouds,330,2013-08-12 23:55:00
6:15 PM,65.5,40.3,40,30.34,10.0,NE,10.4,18.4,N/A,,Mostly Cloudy,40,2013-08-13 00:15:00
6:35 PM,64.9,38.7,38,30.32,10.0,ENE,20.7,26.5,N/A,,Mostly Cloudy,70,2013-08-13 00:35:00
6:55 PM,65.8,36.1,33,30.30,10.0,NE,20.7,26.5,N/A,,Scattered Clouds,50,2013-08-13 00:55:00
7:15 PM,66.6,36.1,33,30.30,10.0,East,20.7,31.1,N/A,,Clear,80,2013-08-13 01:15:00
7:35 PM,66.0,37.0,34,30.31,10.0,East,18.4,26.5,N/A,,Clear,80,2013-08-13 01:35:00
7:55 PM,64.6,37.8,37,30.32,10.0,ENE,13.8,18.4,N/A,,Clear,70,2013-08-13 01:55:00
8:15 PM,63.3,37.2,38,30.32,10.0,ENE,12.7,-,N/A,,Clear,70,2013-08-13 02:15:00
8:35 PM,61.3,37.4,41,30.34,10.0,NE,6.9,-,N/A,,Clear,40,2013-08-13 02:35:00
8:55 PM,59.4,38.1,45,30.34,10.0,NE,5.8,-,N/A,,Clear,40,2013-08-13 02:55:00
9:15 PM,58.3,38.7,48,30.35,10.0,NNE,10.4,-,N/A,,Clear,30,2013-08-13 03:15:00
9:35 PM,58.1,38.8,49,30.36,10.0,NNE,8.1,-,N/A,,Clear,20,2013-08-13 03:35:00
9:55 PM,56.8,39.0,51,30.36,10.0,North,9.2,-,N/A,,Clear,360,2013-08-13 03:55:00
10:55 PM,54.9,38.5,54,30.35,10.0,NNE,5.8,-,N/A,,Clear,20,2013-08-13 04:55:00
11:15 PM,55.6,38.1,52,30.35,10.0,Calm,Calm,-,N/A,,Clear,0,2013-08-13 05:15:00
11:35 PM,55.4,38.5,53,30.34,10.0,SSW,4.6,-,N/A,,Clear,210,2013-08-13 05:35:00
11:55 PM,54.5,39.0,56,30.34,10.0,SW,3.5,-,N/A,,Clear,230,2013-08-13 05:55:00